星链-34895 (STARLINK-34895)

导读

STARLINK-34895是美国于2025年8月27日发射的星链系列卫星,属于SpaceX打造的星链卫星互联网星座组网任务的一部分。星链计划旨在通过大规模低轨卫星部署,为全球提供高速互联网覆盖服务,该卫星入轨后将进一步扩充星链星座规模,提升全球网络覆盖的稳定性与服务能力。

基本信息
目录编号:
65349
目录名称:
STARLINK-34895
国际标识:
2025-189AC
轨道中心:
EARTH
卫星名称:
星链-34895
卫星全名:
星链-34895 (STARLINK-34895)
卫星状态:
在轨 (已飞行373 天)
发射日期:
2025-08-27 UTC
国别 :
美国 (US)
星等 :
--
轨道信息
数据来源 国际轨道数据 AOE轨道数据
星历时间 2026-09-03T06:28:24+0800
1天前
查看轨道信息
2026-08-30T18:00:00+0800
4天前
查看轨道信息
半长轴 6848.874km 6848.798km
偏心率 0.0001544 0.0001264
轨道倾角 53.159° 53.155°
近地点辐角 73.217° 85.047°
升交点赤经 102.060° 118.449°
平近点角 286.900° 296.065°
近地点 469.679km 469.795km
远地点 471.795km 471.527km
周期 94.013分钟 94.012分钟
每日圈数 15.317013 15.317268
详细信息
固有亮度:
5
最大亮度:
2.5
卫星平台:
Starlink V1.0
覆盖范围:
全球
运营商:
太空探索技术公司
运营商所在国:
美国
制造商(研发单位):
太空探索技术公司
制造商所在国:
美国
使用方式:
暂无
卫星简介
Starlink 计划是 SpaceX 推出的全球卫星互联网项目,通过发射低轨道卫星,为全球尤其是偏远地区提供高速、低延迟的互联网服务。自 2019 年起,Starlink 已部署数千颗卫星,旨在缩小全球数字鸿沟,推动互联网普及。该项目还为军事、航空等行业提供通信支持,带来广泛经济效益。
2D轨道图
3D轨道图
轨道高度分析图
轨道倾角分析图
轨道综合分析图
查看轨道综合分析图